"Time","Value","Approval","myLocation"
"2023-05-06 00:00",38.3944270379934,"Approved","OW429"
"2023-05-06 01:00",38.3932259313906,"Approved","OW429"
"2023-05-06 02:00",38.3888248247879,"Approved","OW429"
"2023-05-06 03:00",38.3872237181852,"Approved","OW429"
"2023-05-06 04:00",38.3861226115824,"Approved","OW429"
"2023-05-06 05:00",38.3884215049797,"Approved","OW429"
"2023-05-06 06:00",38.384020398377,"Approved","OW429"
"2023-05-06 07:00",38.3870192917743,"Approved","OW429"
"2023-05-06 08:00",38.3860181851715,"Approved","OW429"
"2023-05-06 09:00",38.3866170785688,"Approved","OW429"
"2023-05-06 10:00",38.3865159719661,"Approved","OW429"
"2023-05-06 11:00",38.3856148653633,"Approved","OW429"
"2023-05-06 12:00",38.3858137587606,"Approved","OW429"
"2023-05-06 13:00",38.3835126521579,"Approved","OW429"
"2023-05-06 14:00",38.3824115455552,"Approved","OW429"
"2023-05-06 15:00",38.3837104389524,"Approved","OW429"
"2023-05-06 16:00",38.3846093323497,"Approved","OW429"
"2023-05-06 17:00",38.385608225747,"Approved","OW429"
"2023-05-06 18:00",38.3875071191442,"Approved","OW429"
"2023-05-06 19:00",38.3880060125415,"Approved","OW429"
"2023-05-06 20:00",38.3909049059388,"Approved","OW429"
"2023-05-06 21:00",38.392103799336,"Approved","OW429"
"2023-05-06 22:00",38.3897026927333,"Approved","OW429"
"2023-05-06 23:00",38.3909015861306,"Approved","OW429"
"2023-05-07 00:00",38.3896004795279,"Approved","OW429"
"2023-05-07 01:00",38.3892993729251,"Approved","OW429"
"2023-05-07 02:00",38.3896982663224,"Approved","OW429"
"2023-05-07 03:00",38.3898971597197,"Approved","OW429"
"2023-05-07 04:00",38.3895960531169,"Approved","OW429"
"2023-05-07 05:00",38.3859949465142,"Approved","OW429"
"2023-05-07 06:00",38.3868938399115,"Approved","OW429"
"2023-05-07 07:00",38.3896927333087,"Approved","OW429"
"2023-05-07 08:00",38.388391626706,"Approved","OW429"
"2023-05-07 09:00",38.3878905201033,"Approved","OW429"
"2023-05-07 10:00",38.3865894135006,"Approved","OW429"
"2023-05-07 11:00",38.3866883068978,"Approved","OW429"
"2023-05-07 12:00",38.3890872002951,"Approved","OW429"
"2023-05-07 13:00",38.3865860936924,"Approved","OW429"
"2023-05-07 14:00",38.3865849870896,"Approved","OW429"
"2023-05-07 15:00",38.3857838804869,"Approved","OW429"
"2023-05-07 16:00",38.3862827738842,"Approved","OW429"
"2023-05-07 17:00",38.3855816672814,"Approved","OW429"
"2023-05-07 18:00",38.3838805606787,"Approved","OW429"
"2023-05-07 19:00",38.384979454076,"Approved","OW429"
"2023-05-07 20:00",38.3852783474733,"Approved","OW429"
"2023-05-07 21:00",38.3834772408705,"Approved","OW429"
"2023-05-07 22:00",38.3810761342678,"Approved","OW429"
"2023-05-07 23:00",38.3782750276651,"Approved","OW429"
"2023-05-08 00:00",38.3749739210623,"Approved","OW429"
"2023-05-08 01:00",38.3740728144596,"Approved","OW429"
"2023-05-08 02:00",38.3715717078569,"Approved","OW429"
"2023-05-08 03:00",38.3698706012541,"Approved","OW429"
"2023-05-08 04:00",38.3671694946514,"Approved","OW429"
"2023-05-08 05:00",38.3679683880487,"Approved","OW429"
"2023-05-08 06:00",38.368267281446,"Approved","OW429"
"2023-05-08 07:00",38.3686661748432,"Approved","OW429"
"2023-05-08 08:00",38.3673650682405,"Approved","OW429"
"2023-05-08 09:00",38.3643639616378,"Approved","OW429"
"2023-05-08 10:00",38.362562855035,"Approved","OW429"
"2023-05-08 11:00",38.3608617484323,"Approved","OW429"
"2023-05-08 12:00",38.3613606418296,"Approved","OW429"
"2023-05-08 13:00",38.3595595352269,"Approved","OW429"
"2023-05-08 14:00",38.3641584286241,"Approved","OW429"
"2023-05-08 15:00",38.3656573220214,"Approved","OW429"
"2023-05-08 16:00",38.3647562154187,"Approved","OW429"
"2023-05-08 17:00",38.3636551088159,"Approved","OW429"
"2023-05-08 18:00",38.3630540022132,"Approved","OW429"
"2023-05-08 19:00",38.3643528956105,"Approved","OW429"
"2023-05-08 20:00",38.3689517890077,"Approved","OW429"
"2023-05-08 21:00",38.371150682405,"Approved","OW429"
"2023-05-08 22:00",38.3736495758023,"Approved","OW429"
"2023-05-08 23:00",38.3746484691996,"Approved","OW429"
"2023-05-09 00:00",38.3746473625968,"Approved","OW429"
"2023-05-09 01:00",38.3765462559941,"Approved","OW429"
"2023-05-09 02:00",38.3814451493914,"Approved","OW429"
"2023-05-09 03:00",38.3848440427886,"Approved","OW429"
"2023-05-09 04:00",38.3860429361859,"Approved","OW429"
"2023-05-09 05:00",38.3883418295832,"Approved","OW429"
"2023-05-09 06:00",38.3920407229804,"Approved","OW429"
"2023-05-09 07:00",38.3934396163777,"Approved","OW429"
"2023-05-09 08:00",38.393738509775,"Approved","OW429"
"2023-05-09 09:00",38.3920374031723,"Approved","OW429"
"2023-05-09 10:00",38.3913362965695,"Approved","OW429"
"2023-05-09 11:00",38.3897351899668,"Approved","OW429"
"2023-05-09 12:00",38.3855340833641,"Approved","OW429"
"2023-05-09 13:00",38.3843329767613,"Approved","OW429"
"2023-05-09 14:00",38.3871318701586,"Approved","OW429"
"2023-05-09 15:00",38.3858307635559,"Approved","OW429"
"2023-05-09 16:00",38.3804296569532,"Approved","OW429"
"2023-05-09 17:00",38.3773285503504,"Approved","OW429"
"2023-05-09 18:00",38.3771274437477,"Approved","OW429"
"2023-05-09 19:00",38.379926337145,"Approved","OW429"
"2023-05-09 20:00",38.3819252305422,"Approved","OW429"
"2023-05-09 21:00",38.3865241239395,"Approved","OW429"
"2023-05-09 22:00",38.3832230173368,"Approved","OW429"
"2023-05-09 23:00",38.380521910734,"Approved","OW429"
"2023-05-10 00:00",38.3788208041313,"Approved","OW429"
"2023-05-10 01:00",38.3770196975286,"Approved","OW429"
"2023-05-10 02:00",38.3757185909259,"Approved","OW429"
"2023-05-10 03:00",38.3752174843231,"Approved","OW429"
"2023-05-10 04:00",38.3730163777204,"Approved","OW429"
"2023-05-10 05:00",38.3714152711177,"Approved","OW429"
"2023-05-10 06:00",38.3720141645149,"Approved","OW429"
"2023-05-10 07:00",38.3719130579122,"Approved","OW429"
"2023-05-10 08:00",38.3703119513095,"Approved","OW429"
"2023-05-10 09:00",38.3664108447067,"Approved","OW429"
"2023-05-10 10:00",38.365309738104,"Approved","OW429"
"2023-05-10 11:00",38.3663086315013,"Approved","OW429"
"2023-05-10 12:00",38.3658075248986,"Approved","OW429"
"2023-05-10 13:00",38.3626064182958,"Approved","OW429"
"2023-05-10 14:00",38.3596053116931,"Approved","OW429"
"2023-05-10 15:00",38.3575042050904,"Approved","OW429"
"2023-05-10 16:00",38.3568030984876,"Approved","OW429"
"2023-05-10 17:00",38.3555019918849,"Approved","OW429"
"2023-05-10 18:00",38.3573008852822,"Approved","OW429"
"2023-05-10 19:00",38.3629997786795,"Approved","OW429"
"2023-05-10 20:00",38.3686986720767,"Approved","OW429"
"2023-05-10 21:00",38.375297565474,"Approved","OW429"
"2023-05-10 22:00",38.3763964588713,"Approved","OW429"
"2023-05-10 23:00",38.3782953522685,"Approved","OW429"
"2023-05-11 00:00",38.3793942456658,"Approved","OW429"
"2023-05-11 01:00",38.3789931390631,"Approved","OW429"
"2023-05-11 02:00",38.3795920324603,"Approved","OW429"
"2023-05-11 03:00",38.3815909258576,"Approved","OW429"
"2023-05-11 04:00",38.3813898192549,"Approved","OW429"
"2023-05-11 05:00",38.3816887126522,"Approved","OW429"
"2023-05-11 06:00",38.3854876060494,"Approved","OW429"
"2023-05-11 07:00",38.3886864994467,"Approved","OW429"
"2023-05-11 08:00",38.388185392844,"Approved","OW429"
"2023-05-11 09:00",38.3875842862412,"Approved","OW429"
"2023-05-11 10:00",38.3868831796385,"Approved","OW429"
"2023-05-11 11:00",38.3867820730358,"Approved","OW429"
"2023-05-11 12:00",38.387980966433,"Approved","OW429"
"2023-05-11 13:00",38.3851798598303,"Approved","OW429"
"2023-05-11 14:00",38.3818787532276,"Approved","OW429"
"2023-05-11 15:00",38.3789776466249,"Approved","OW429"
"2023-05-11 16:00",38.3767765400221,"Approved","OW429"
"2023-05-11 17:00",38.3752754334194,"Approved","OW429"
"2023-05-11 18:00",38.3759743268167,"Approved","OW429"
"2023-05-11 19:00",38.3794732202139,"Approved","OW429"
"2023-05-11 20:00",38.3826721136112,"Approved","OW429"
"2023-05-11 21:00",38.3876710070085,"Approved","OW429"
"2023-05-11 22:00",38.3885699004058,"Approved","OW429"
"2023-05-11 23:00",38.388968793803,"Approved","OW429"
"2023-05-12 00:00",38.3925676872003,"Approved","OW429"
"2023-05-12 01:00",38.3931665805976,"Approved","OW429"
"2023-05-12 02:00",38.3934654739948,"Approved","OW429"
"2023-05-12 03:00",38.3958643673921,"Approved","OW429"
"2023-05-12 04:00",38.3948632607894,"Approved","OW429"
"2023-05-12 05:00",38.3948621541866,"Approved","OW429"
"2023-05-12 06:00",38.3967610475839,"Approved","OW429"
"2023-05-12 07:00",38.4010599409812,"Approved","OW429"
"2023-05-12 08:00",38.4015588343785,"Approved","OW429"
"2023-05-12 09:00",38.4015577277757,"Approved","OW429"
"2023-05-12 10:00",38.400956621173,"Approved","OW429"
"2023-05-12 11:00",38.4033555145703,"Approved","OW429"
"2023-05-12 12:00",38.4033544079675,"Approved","OW429"
"2023-05-12 13:00",38.3989533013648,"Approved","OW429"
"2023-05-12 14:00",38.3953521947621,"Approved","OW429"
"2023-05-12 15:00",38.3920510881593,"Approved","OW429"
"2023-05-12 16:00",38.3900499815566,"Approved","OW429"
"2023-05-12 17:00",38.3886488749539,"Approved","OW429"
"2023-05-12 18:00",38.3887477683512,"Approved","OW429"
"2023-05-12 19:00",38.3894466617484,"Approved","OW429"
"2023-05-12 20:00",38.3932455551457,"Approved","OW429"
"2023-05-12 21:00",38.395844448543,"Approved","OW429"
"2023-05-12 22:00",38.3978433419402,"Approved","OW429"
"2023-05-12 23:00",38.3977422353375,"Approved","OW429"
"2023-05-13 00:00",38.4000411287348,"Approved","OW429"
"2023-05-13 01:00",38.4006400221321,"Approved","OW429"
"2023-05-13 02:00",38.3989389155293,"Approved","OW429"
"2023-05-13 03:00",38.3986378089266,"Approved","OW429"
"2023-05-13 04:00",38.4010367023239,"Approved","OW429"
"2023-05-13 05:00",38.4011355957211,"Approved","OW429"
"2023-05-13 06:00",38.4016344891184,"Approved","OW429"
"2023-05-13 07:00",38.3996333825157,"Approved","OW429"
"2023-05-13 08:00",38.3996322759129,"Approved","OW429"
"2023-05-13 09:00",38.3983311693102,"Approved","OW429"
"2023-05-13 10:00",38.3966300627075,"Approved","OW429"
"2023-05-13 11:00",38.3963289561048,"Approved","OW429"
"2023-05-13 12:00",38.392727849502,"Approved","OW429"
"2023-05-13 13:00",38.3831267428993,"Approved","OW429"
"2023-05-13 14:00",38.3795256362966,"Approved","OW429"
"2023-05-13 15:00",38.3758245296938,"Approved","OW429"
"2023-05-13 16:00",38.3714234230911,"Approved","OW429"
"2023-05-13 17:00",38.3665223164884,"Approved","OW429"
"2023-05-13 18:00",38.3633212098857,"Approved","OW429"
"2023-05-13 19:00",38.3617201032829,"Approved","OW429"
"2023-05-13 20:00",38.3637189966802,"Approved","OW429"
"2023-05-13 21:00",38.3657178900775,"Approved","OW429"
"2023-05-13 22:00",38.3661167834747,"Approved","OW429"
"2023-05-13 23:00",38.366015676872,"Approved","OW429"
"2023-05-14 00:00",38.3664145702693,"Approved","OW429"
"2023-05-14 01:00",38.3672134636665,"Approved","OW429"
"2023-05-14 02:00",38.3643123570638,"Approved","OW429"
"2023-05-14 03:00",38.3623112504611,"Approved","OW429"
"2023-05-14 04:00",38.3606101438584,"Approved","OW429"
"2023-05-14 05:00",38.3562090372556,"Approved","OW429"
"2023-05-14 06:00",38.3561079306529,"Approved","OW429"
"2023-05-14 07:00",38.3565068240502,"Approved","OW429"
"2023-05-14 08:00",38.3533057174474,"Approved","OW429"
"2023-05-14 09:00",38.3491046108447,"Approved","OW429"
"2023-05-14 10:00",38.345903504242,"Approved","OW429"
"2023-05-14 11:00",38.3451023976392,"Approved","OW429"
"2023-05-14 12:00",38.3436012910365,"Approved","OW429"
"2023-05-14 13:00",38.3447001844338,"Approved","OW429"
"2023-05-14 14:00",38.3400990778311,"Approved","OW429"
"2023-05-14 15:00",38.3356979712283,"Approved","OW429"
"2023-05-14 16:00",38.3351968646256,"Approved","OW429"
"2023-05-14 17:00",38.3327957580229,"Approved","OW429"
"2023-05-14 18:00",38.3313946514201,"Approved","OW429"
"2023-05-14 19:00",38.3341935448174,"Approved","OW429"
"2023-05-14 20:00",38.3405924382147,"Approved","OW429"
"2023-05-14 21:00",38.345991331612,"Approved","OW429"
"2023-05-14 22:00",38.3482902250092,"Approved","OW429"
"2023-05-14 23:00",38.3489891184065,"Approved","OW429"
"2023-05-15 00:00",38.3482880118038,"Approved","OW429"
"2023-05-15 01:00",38.347386905201,"Approved","OW429"
"2023-05-15 02:00",38.3463857985983,"Approved","OW429"
"2023-05-15 03:00",38.3457846919956,"Approved","OW429"
"2023-05-15 04:00",38.3458835853928,"Approved","OW429"
"2023-05-15 05:00",38.3478824787901,"Approved","OW429"
"2023-05-15 06:00",38.3500813721874,"Approved","OW429"
"2023-05-15 07:00",38.3489802655847,"Approved","OW429"
"2023-05-15 08:00",38.3476791589819,"Approved","OW429"
"2023-05-15 09:00",38.3455780523792,"Approved","OW429"
"2023-05-15 10:00",38.3462769457765,"Approved","OW429"
"2023-05-15 11:00",38.3503758391737,"Approved","OW429"
"2023-05-15 12:00",38.349674732571,"Approved","OW429"
"2023-05-15 13:00",38.3481736259683,"Approved","OW429"
"2023-05-15 14:00",38.3465725193656,"Approved","OW429"
"2023-05-15 15:00",38.3440714127628,"Approved","OW429"
"2023-05-15 16:00",38.3433703061601,"Approved","OW429"
"2023-05-15 17:00",38.3432691995574,"Approved","OW429"
"2023-05-15 18:00",38.3423680929546,"Approved","OW429"
"2023-05-15 19:00",38.3504669863519,"Approved","OW429"
"2023-05-15 20:00",38.3600658797492,"Approved","OW429"
"2023-05-15 21:00",38.3695647731464,"Approved","OW429"
"2023-05-15 22:00",38.3717636665437,"Approved","OW429"
"2023-05-15 23:00",38.374962559941,"Approved","OW429"
"2023-05-16 00:00",38.3802614533383,"Approved","OW429"
"2023-05-16 01:00",38.3841603467355,"Approved","OW429"
"2023-05-16 02:00",38.3870592401328,"Approved","OW429"
"2023-05-16 03:00",38.3900581335301,"Approved","OW429"
"2023-05-16 04:00",38.3891570269273,"Approved","OW429"
"2023-05-16 05:00",38.3906559203246,"Approved","OW429"
"2023-05-16 06:00",38.3943548137219,"Approved","OW429"
"2023-05-16 07:00",38.3964537071191,"Approved","OW429"
"2023-05-16 08:00",38.3951526005164,"Approved","OW429"
"2023-05-16 09:00",38.3953514939137,"Approved","OW429"
"2023-05-16 10:00",38.395450387311,"Approved","OW429"
"2023-05-16 11:00",38.3930492807082,"Approved","OW429"
"2023-05-16 12:00",38.3896481741055,"Approved","OW429"
"2023-05-16 13:00",38.3836470675028,"Approved","OW429"
"2023-05-16 14:00",38.3778459609,"Approved","OW429"
"2023-05-16 15:00",38.3727448542973,"Approved","OW429"
"2023-05-16 16:00",38.3691437476946,"Approved","OW429"
"2023-05-16 17:00",38.3679426410919,"Approved","OW429"
"2023-05-16 18:00",38.3661415344891,"Approved","OW429"
"2023-05-16 19:00",38.3686404278864,"Approved","OW429"
"2023-05-16 20:00",38.3749393212837,"Approved","OW429"
"2023-05-16 21:00",38.3793382146809,"Approved","OW429"
"2023-05-16 22:00",38.3795371080782,"Approved","OW429"
"2023-05-16 23:00",38.3789360014755,"Approved","OW429"
"2023-05-17 00:00",38.3726348948727,"Approved","OW429"
"2023-05-17 01:00",38.36973378827,"Approved","OW429"
"2023-05-17 02:00",38.3771326816673,"Approved","OW429"
"2023-05-17 03:00",38.3739315750646,"Approved","OW429"
"2023-05-17 04:00",38.3732304684618,"Approved","OW429"
"2023-05-17 05:00",38.3712293618591,"Approved","OW429"
"2023-05-17 06:00",38.3713282552564,"Approved","OW429"
"2023-05-17 07:00",38.3695271486536,"Approved","OW429"
"2023-05-17 08:00",38.3664260420509,"Approved","OW429"
"2023-05-17 09:00",38.3636249354482,"Approved","OW429"
"2023-05-17 10:00",38.3611238288454,"Approved","OW429"
"2023-05-17 11:00",38.3602227222427,"Approved","OW429"
"2023-05-17 12:00",38.35532161564,"Approved","OW429"
"2023-05-17 13:00",38.3497205090373,"Approved","OW429"
"2023-05-17 14:00",38.3473194024345,"Approved","OW429"
"2023-05-17 15:00",38.3418182958318,"Approved","OW429"
"2023-05-17 16:00",38.3388171892291,"Approved","OW429"
"2023-05-17 17:00",38.3348160826263,"Approved","OW429"
"2023-05-17 18:00",38.3329149760236,"Approved","OW429"
"2023-05-17 19:00",38.3357138694209,"Approved","OW429"
"2023-05-17 20:00",38.3375127628182,"Approved","OW429"
"2023-05-17 21:00",38.3412116562154,"Approved","OW429"
"2023-05-17 22:00",38.3440105496127,"Approved","OW429"
"2023-05-17 23:00",38.34790944301,"Approved","OW429"
"2023-05-18 00:00",38.3485083364072,"Approved","OW429"
"2023-05-18 01:00",38.3497072298045,"Approved","OW429"
"2023-05-18 02:00",38.3526061232018,"Approved","OW429"
"2023-05-18 03:00",38.353705016599,"Approved","OW429"
"2023-05-18 04:00",38.3548039099963,"Approved","OW429"
"2023-05-18 05:00",38.3547028033936,"Approved","OW429"
"2023-05-18 06:00",38.3588016967908,"Approved","OW429"
"2023-05-18 07:00",38.3642005901881,"Approved","OW429"
"2023-05-18 08:00",38.3654994835854,"Approved","OW429"
"2023-05-18 09:00",38.3653983769827,"Approved","OW429"
"2023-05-18 10:00",38.3680972703799,"Approved","OW429"
"2023-05-18 11:00",38.3700961637772,"Approved","OW429"
"2023-05-18 12:00",38.3726950571745,"Approved","OW429"
"2023-05-18 13:00",38.3794939505717,"Approved","OW429"
"2023-05-18 14:00",38.381692843969,"Approved","OW429"
"2023-05-18 15:00",38.3816917373663,"Approved","OW429"
"2023-05-18 16:00",38.3813906307636,"Approved","OW429"
"2023-05-18 17:00",38.3836895241608,"Approved","OW429"
"2023-05-18 18:00",38.3846884175581,"Approved","OW429"
"2023-05-18 19:00",38.3893873109554,"Approved","OW429"
"2023-05-18 20:00",38.3976862043526,"Approved","OW429"
"2023-05-18 21:00",38.4039850977499,"Approved","OW429"
"2023-05-18 22:00",38.4068839911472,"Approved","OW429"
"2023-05-18 23:00",38.4077828845445,"Approved","OW429"
"2023-05-19 00:00",38.4096817779417,"Approved","OW429"
"2023-05-19 01:00",38.410680671339,"Approved","OW429"
"2023-05-19 02:00",38.4084795647363,"Approved","OW429"
"2023-05-19 03:00",38.4077784581335,"Approved","OW429"
"2023-05-19 04:00",38.4094773515308,"Approved","OW429"
"2023-05-19 05:00",38.4117762449281,"Approved","OW429"
"2023-05-19 06:00",38.4162751383253,"Approved","OW429"
"2023-05-19 07:00",38.4175740317226,"Approved","OW429"
"2023-05-19 08:00",38.4172729251199,"Approved","OW429"
"2023-05-19 09:00",38.4151718185172,"Approved","OW429"
"2023-05-19 10:00",38.4126707119144,"Approved","OW429"
"2023-05-19 11:00",38.4110696053117,"Approved","OW429"
"2023-05-19 12:00",38.409368498709,"Approved","OW429"
"2023-05-19 13:00",38.4058673921062,"Approved","OW429"
"2023-05-19 14:00",38.4021662855035,"Approved","OW429"
"2023-05-19 15:00",38.3966651789008,"Approved","OW429"
"2023-05-19 16:00",38.391664072298,"Approved","OW429"
"2023-05-19 17:00",38.3878629656953,"Approved","OW429"
"2023-05-19 18:00",38.3850618590926,"Approved","OW429"
"2023-05-19 19:00",38.3853607524899,"Approved","OW429"
"2023-05-19 20:00",38.3881596458871,"Approved","OW429"
"2023-05-19 21:00",38.3948585392844,"Approved","OW429"
"2023-05-19 22:00",38.3954574326817,"Approved","OW429"
"2023-05-19 23:00",38.3967563260789,"Approved","OW429"
"2023-05-20 00:00",38.3987552194762,"Approved","OW429"
"2023-05-20 01:00",38.3982541128735,"Approved","OW429"
"2023-05-20 02:00",38.4004530062708,"Approved","OW429"
"2023-05-20 03:00",38.401251899668,"Approved","OW429"
"2023-05-20 04:00",38.4016507930653,"Approved","OW429"
"2023-05-20 05:00",38.4029496864626,"Approved","OW429"
"2023-05-20 06:00",38.4053485798598,"Approved","OW429"
"2023-05-20 07:00",38.4089474732571,"Approved","OW429"
"2023-05-20 08:00",38.4069463666544,"Approved","OW429"
"2023-05-20 09:00",38.4024452600516,"Approved","OW429"
"2023-05-20 10:00",38.4013441534489,"Approved","OW429"
"2023-05-20 11:00",38.3984430468462,"Approved","OW429"
"2023-05-20 12:00",38.3956419402435,"Approved","OW429"
"2023-05-20 13:00",38.3907408336407,"Approved","OW429"
"2023-05-20 14:00",38.386339727038,"Approved","OW429"
"2023-05-20 15:00",38.3828386204353,"Approved","OW429"
"2023-05-20 16:00",38.3796375138325,"Approved","OW429"
"2023-05-20 17:00",38.3805364072298,"Approved","OW429"
"2023-05-20 18:00",38.3827353006271,"Approved","OW429"
"2023-05-20 19:00",38.3869341940243,"Approved","OW429"
"2023-05-20 20:00",38.3902330874216,"Approved","OW429"
"2023-05-20 21:00",38.3925319808189,"Approved","OW429"
"2023-05-20 22:00",38.3970308742162,"Approved","OW429"
"2023-05-20 23:00",38.3970297676134,"Approved","OW429"
"2023-05-21 00:00",38.3990286610107,"Approved","OW429"
"2023-05-21 01:00",38.401127554408,"Approved","OW429"
"2023-05-21 02:00",38.3977264478052,"Approved","OW429"
"2023-05-21 03:00",38.3985253412025,"Approved","OW429"
"2023-05-21 04:00",38.4011242345998,"Approved","OW429"
"2023-05-21 05:00",38.3993231279971,"Approved","OW429"
"2023-05-21 06:00",38.4001220213943,"Approved","OW429"
"2023-05-21 07:00",38.4012209147916,"Approved","OW429"
"2023-05-21 08:00",38.4041198081889,"Approved","OW429"
"2023-05-21 09:00",38.4067187015861,"Approved","OW429"
"2023-05-21 10:00",38.4008175949834,"Approved","OW429"
"2023-05-21 11:00",38.3986164883807,"Approved","OW429"
"2023-05-21 12:00",38.3982153817779,"Approved","OW429"
"2023-05-21 13:00",38.3964142751752,"Approved","OW429"
"2023-05-21 14:00",38.3994131685725,"Approved","OW429"
"2023-05-21 15:00",38.4016120619698,"Approved","OW429"
"2023-05-21 16:00",38.399310955367,"Approved","OW429"
"2023-05-21 17:00",38.3974098487643,"Approved","OW429"
"2023-05-21 18:00",38.3947087421616,"Approved","OW429"
"2023-05-21 19:00",38.3959076355588,"Approved","OW429"
"2023-05-21 20:00",38.3967065289561,"Approved","OW429"
"2023-05-21 21:00",38.3976054223534,"Approved","OW429"
"2023-05-21 22:00",38.3975043157506,"Approved","OW429"
"2023-05-21 23:00",38.3945032091479,"Approved","OW429"
"2023-05-22 00:00",38.3926021025452,"Approved","OW429"
"2023-05-22 01:00",38.3905009959425,"Approved","OW429"
"2023-05-22 02:00",38.3925998893397,"Approved","OW429"
"2023-05-22 03:00",38.393298782737,"Approved","OW429"
"2023-05-22 04:00",38.3907976761343,"Approved","OW429"
"2023-05-22 05:00",38.3888965695315,"Approved","OW429"
"2023-05-22 06:00",38.3890954629288,"Approved","OW429"
"2023-05-22 07:00",38.3888943563261,"Approved","OW429"
"2023-05-22 08:00",38.3908932497233,"Approved","OW429"
"2023-05-22 09:00",38.3873921431206,"Approved","OW429"
"2023-05-22 10:00",38.3866910365179,"Approved","OW429"
"2023-05-22 11:00",38.3886899299152,"Approved","OW429"
"2023-05-22 12:00",38.3882888233124,"Approved","OW429"
"2023-05-22 13:00",38.3852877167097,"Approved","OW429"
"2023-05-22 14:00",38.388986610107,"Approved","OW429"
"2023-05-22 15:00",38.3890855035042,"Approved","OW429"
"2023-05-22 16:00",38.3879843969015,"Approved","OW429"
"2023-05-22 17:00",38.3895832902988,"Approved","OW429"
"2023-05-22 18:00",38.393182183696,"Approved","OW429"
"2023-05-22 19:00",38.3940810770933,"Approved","OW429"
"2023-05-22 20:00",38.3924799704906,"Approved","OW429"
"2023-05-22 21:00",38.3920788638879,"Approved","OW429"
"2023-05-22 22:00",38.3922777572851,"Approved","OW429"
"2023-05-22 23:00",38.3952766506824,"Approved","OW429"
"2023-05-23 00:00",38.3945755440797,"Approved","OW429"
"2023-05-23 01:00",38.3919744374769,"Approved","OW429"
"2023-05-23 02:00",38.3885733308742,"Approved","OW429"
"2023-05-23 03:00",38.3863722242715,"Approved","OW429"
"2023-05-23 04:00",38.3880711176688,"Approved","OW429"
"2023-05-23 05:00",38.390970011066,"Approved","OW429"
"2023-05-23 06:00",38.3897689044633,"Approved","OW429"
"2023-05-23 07:00",38.3866677978606,"Approved","OW429"
"2023-05-23 08:00",38.3838666912578,"Approved","OW429"
"2023-05-23 09:00",38.3806655846551,"Approved","OW429"
"2023-05-23 10:00",38.3811644780524,"Approved","OW429"
"2023-05-23 11:00",38.3794633714496,"Approved","OW429"
"2023-05-23 12:00",38.3811622648469,"Approved","OW429"
"2023-05-23 13:00",38.3813611582442,"Approved","OW429"
"2023-05-23 14:00",38.3826600516415,"Approved","OW429"
"2023-05-23 15:00",38.3811589450387,"Approved","OW429"
"2023-05-23 16:00",38.380457838436,"Approved","OW429"
"2023-05-23 17:00",38.3784567318333,"Approved","OW429"
"2023-05-23 18:00",38.3769556252305,"Approved","OW429"
"2023-05-23 19:00",38.3771545186278,"Approved","OW429"